Date String (YYYY-MM-DD hh:mm:ss) UTC,Instrument flags,Ambient pressure (hPa),Sample flow (lpm),Bypass flow (lpm),Sample temperature (°C),Ambient temperature (°C),ASC tube jacket temperature (°C),LED temperature (°C),Box temperature (°C),Sample RH (%),Span deviation,Mass concentration (μg/m³),Mass concentration (μg/m³),Mass concentration (μg/m³)
DateTimeUTC,F1_M11,P_M11,Q1_M11,Q2_M11,T1_M11,T2_M11,T3_M11,T4_M11,T5_M11,U1_M11,ZSPAN_M11,X2_M11,X0_M11,X1_M11
2023-04-06 12:00:00,,0834.2,5.02,0.00,22.2,21.6,00.0,30.6,23.5,07.2,0000.0,0001.81,0003.16,0001.47
2023-04-06 12:01:00,,0834.2,5.00,0.00,22.1,21.1,00.0,30.6,23.3,07.4,0000.0,0001.79,0003.09,0001.47
2023-04-06 12:02:00,,0834.1,4.99,0.00,22.0,20.6,00.0,30.5,23.2,07.4,0000.0,0001.81,0002.56,0001.48
2023-04-06 12:03:00,,0834.2,5.01,0.00,21.9,20.2,00.0,30.5,23.1,07.5,0000.0,0001.78,0002.49,0001.49
2023-04-06 12:04:00,,0834.2,5.01,0.00,21.8,20.0,00.0,30.5,23.1,07.5,0000.0,0001.77,0002.49,0001.49
2023-04-06 12:05:00,,0834.2,5.01,0.00,21.9,20.5,00.0,30.4,23.4,07.6,0000.0,0001.83,0002.65,0001.49
2023-04-06 12:06:00,,0834.3,5.00,0.00,22.0,21.7,00.0,30.4,23.8,07.7,0000.0,0001.85,0002.76,0001.49
2023-04-06 12:07:00,,0834.3,5.00,0.00,22.2,22.8,00.0,30.4,24.2,07.7,0000.0,0001.84,0002.68,0001.49
2023-04-06 12:08:00,,0834.5,4.99,0.00,22.3,23.2,00.0,30.4,24.3,07.8,0000.0,0001.85,0002.64,0001.51
2023-04-06 12:09:00,,0834.4,4.99,0.00,22.3,22.9,00.0,30.5,24.0,07.8,0000.0,0001.86,0002.65,0001.51
2023-04-06 12:10:00,,0834.2,5.01,0.00,22.3,22.3,00.0,30.5,23.7,07.5,0000.0,0001.85,0002.58,0001.52
2023-04-06 12:11:00,,0834.2,5.00,0.00,22.1,21.6,00.0,30.6,23.4,07.6,0000.0,0001.83,0002.55,0001.51
2023-04-06 12:12:00,,0834.2,5.01,0.00,22.1,21.1,00.0,30.5,23.2,07.7,0000.0,0001.86,0002.60,0001.51
2023-04-06 12:13:00,,0834.2,5.01,0.00,21.9,20.6,00.0,30.5,23.0,07.6,0000.0,0001.86,0002.59,0001.51
2023-04-06 12:14:00,,0834.2,5.00,0.00,21.8,20.1,00.0,30.5,22.8,07.6,0000.0,0001.84,0002.55,0001.51
2023-04-06 12:15:00,,0834.6,4.99,0.00,21.7,19.9,00.0,30.4,22.8,07.6,0000.0,0001.83,0002.52,0001.50
2023-04-06 12:16:00,,0834.4,5.00,0.00,21.8,20.6,00.0,30.3,23.3,07.6,0000.0,0001.81,0002.49,0001.49
2023-04-06 12:17:00,,0834.4,5.00,0.00,22.0,21.7,00.0,30.3,23.7,07.6,0000.0,0001.78,0002.36,0001.49
2023-04-06 12:18:00,,0834.4,5.00,0.00,22.1,22.6,00.0,30.3,24.1,07.5,0000.0,0001.78,0002.39,0001.49
2023-04-06 12:19:00,,0834.4,5.00,0.00,22.2,22.6,00.0,30.4,23.9,07.5,0000.0,0001.77,0002.38,0001.48
2023-04-06 12:20:00,,0834.3,4.99,0.00,22.1,22.0,00.0,30.4,23.5,07.6,0000.0,0001.75,0002.28,0001.48
2023-04-06 12:21:00,,0834.6,5.00,0.00,22.0,21.3,00.0,30.4,23.2,07.6,0000.0,0001.76,0002.30,0001.48
2023-04-06 12:22:00,,0834.7,5.00,0.00,21.9,20.8,00.0,30.4,23.1,07.7,0000.0,0001.78,0002.35,0001.49
2023-04-06 12:23:00,,0834.7,4.99,0.00,21.9,20.3,00.0,30.4,23.0,07.7,0000.0,0001.77,0003.12,0001.49
2023-04-06 12:24:00,,0834.6,5.00,0.00,21.8,19.9,00.0,30.4,22.9,07.8,0000.0,0001.75,0003.20,0001.49
2023-04-06 12:25:00,,0834.7,5.01,0.00,21.8,20.0,00.0,30.3,23.0,07.9,0000.0,0001.80,0003.27,0001.51
2023-04-06 12:26:00,,0834.4,5.00,0.00,21.9,21.1,00.0,30.2,23.5,07.8,0000.0,0001.82,0003.29,0001.52
2023-04-06 12:27:00,,0834.4,5.01,0.00,22.0,22.3,00.0,30.2,23.9,07.8,0000.0,0001.81,0003.23,0001.52
2023-04-06 12:28:00,,0834.5,5.00,0.00,22.2,23.0,00.0,30.3,24.2,07.7,0000.0,0001.80,0003.24,0001.53
2023-04-06 12:29:00,,0834.4,4.99,0.00,22.2,22.6,00.0,30.4,23.9,07.7,0000.0,0001.82,0003.29,0001.54
2023-04-06 12:30:00,,0834.4,5.00,0.00,22.1,22.0,00.0,30.4,23.7,08.0,0000.0,0001.83,0003.31,0001.55
2023-04-06 12:31:00,,0834.3,4.99,0.00,22.1,21.5,00.0,30.4,23.6,08.0,0000.0,0001.88,0003.47,0001.56
2023-04-06 12:32:00,,0834.4,5.01,0.00,22.1,21.1,00.0,30.4,23.5,08.0,0000.0,0001.89,0003.53,0001.57
2023-04-06 12:33:00,,0834.4,5.00,0.00,22.0,20.9,00.0,30.4,23.4,07.9,0000.0,0001.92,0003.60,0001.57
2023-04-06 12:34:00,,0834.4,5.00,0.00,22.0,20.7,00.0,30.4,23.4,08.1,0000.0,0001.92,0002.98,0001.58
2023-04-06 12:35:00,,0834.3,5.00,0.00,22.0,20.6,00.0,30.4,23.4,08.2,0000.0,0001.93,0002.78,0001.58
2023-04-06 12:36:00,,0834.4,5.01,0.00,21.9,20.5,00.0,30.4,23.4,08.2,0000.0,0001.92,0002.83,0001.57
2023-04-06 12:37:00,,0834.3,5.00,0.00,21.9,20.5,00.0,30.4,23.4,08.1,0000.0,0001.91,0002.84,0001.56
2023-04-06 12:38:00,,0834.4,4.99,0.00,22.0,21.4,00.0,30.3,23.8,07.9,0000.0,0001.90,0002.81,0001.56
2023-04-06 12:39:00,,0834.4,5.00,0.00,22.2,22.6,00.0,30.3,24.2,07.9,0000.0,0001.94,0002.93,0001.57
2023-04-06 12:40:00,,0834.5,4.99,0.00,22.3,23.1,00.0,30.4,24.3,07.8,0000.0,0001.95,0002.90,0001.56
2023-04-06 12:41:00,,0834.5,4.99,0.00,22.4,22.9,00.0,30.5,24.2,07.7,0000.0,0001.93,0002.87,0001.54
2023-04-06 12:42:00,,0834.5,5.01,0.00,22.4,22.5,00.0,30.5,24.0,07.7,0000.0,0001.92,0002.85,0001.52
2023-04-06 12:43:00,,0834.5,5.00,0.00,22.4,22.2,00.0,30.6,23.9,07.7,0000.0,0001.88,0002.71,0001.51
2023-04-06 12:44:00,,0834.5,5.00,0.00,22.3,21.9,00.0,30.6,23.9,07.7,0000.0,0001.86,0002.68,0001.50
2023-04-06 12:45:00,,0834.5,4.99,0.00,22.3,21.6,00.0,30.6,23.8,07.7,0000.0,0001.88,0002.77,0001.50
2023-04-06 12:46:00,,0834.5,5.01,0.00,22.3,21.4,00.0,30.6,23.8,07.7,0000.0,0001.89,0002.83,0001.49
2023-04-06 12:47:00,,0834.9,5.00,0.00,22.3,21.2,00.0,30.6,23.7,07.7,0000.0,0001.89,0002.83,0001.50
2023-04-06 12:48:00,,0835.0,4.99,0.00,22.3,21.0,00.0,30.6,23.7,07.7,0000.0,0001.92,0002.90,0001.51
2023-04-06 12:49:00,,0835.1,5.00,0.00,22.3,20.9,00.0,30.6,23.7,07.7,0000.0,0001.94,0002.96,0001.52
2023-04-06 12:50:00,,0835.1,4.98,0.00,22.2,20.7,00.0,30.6,23.6,07.9,0000.0,0001.89,0002.79,0001.52
2023-04-06 12:51:00,,0835.0,5.00,0.00,22.2,20.5,00.0,30.6,23.5,07.8,0000.0,0001.84,0002.81,0001.51
2023-04-06 12:52:00,,0834.7,5.02,0.00,22.2,21.0,00.0,30.5,23.8,07.7,0000.0,0001.87,0002.88,0001.51
2023-04-06 12:53:00,,0835.0,4.99,0.00,22.4,22.2,00.0,30.5,24.3,07.7,0000.0,0001.83,0002.80,0001.51
2023-04-06 12:54:00,,0834.7,4.99,0.00,22.5,23.2,00.0,30.5,24.6,07.6,0000.0,0001.90,0003.05,0001.52
2023-04-06 12:55:00,,0835.0,4.98,0.00,22.6,23.2,00.0,30.6,24.5,07.6,0000.0,0001.91,0003.95,0001.52
2023-04-06 12:56:00,,0835.1,5.01,0.00,22.6,22.9,00.0,30.7,24.3,07.6,0000.0,0001.89,0004.12,0001.51
2023-04-06 12:57:00,,0834.9,5.00,0.00,22.6,22.5,00.0,30.7,24.2,07.6,0000.0,0001.88,0004.20,0001.51
2023-04-06 12:58:00,,0834.7,4.99,0.00,22.5,22.2,00.0,30.8,24.1,07.6,0000.0,0001.88,0004.18,0001.50
2023-04-06 12:59:00,,0835.0,4.99,0.00,22.5,21.8,00.0,30.8,24.0,07.6,0000.0,0001.86,0004.09,0001.48
